| time (UTC) | temp F | wind direction | speed MPH | gust MPH | rain 1hr in | rain 24hr in | rain mn in | humidity % | barometer mb |
| 20260504081524 | 44 | 151 | 0.0 | 0.0 | 0.00 | 0.00 | 0.00 | 97 | 1008.3 |
| 20260504081019 | 44 | 151 | 0.0 | 0.0 | 0.00 | 0.00 | 0.00 | 97 | 1008.2 |
| 20260504080516 | 44 | 151 | 0.0 | 1.0 | 0.00 | 0.00 | 0.00 | 97 | 1008.3 |
| 20260504050328 | 46 | 137 | 0.0 | 0.0 | 0.00 | 0.00 | 0.00 | 96 | 1009.3 |
| 20260504045825 | 46 | 111 | 1.0 | 1.0 | 0.00 | 0.00 | 0.00 | 96 | 1009.4 |
| 20260504045320 | 46 | 153 | 0.0 | 1.0 | 0.00 | 0.00 | 0.00 | 96 | 1009.2 |
| 20260504044818 | 46 | 153 | 0.0 | 0.0 | 0.00 | 0.00 | 0.00 | 96 | 1009.3 |
| 20260504044315 | 46 | 153 | 0.0 | 0.0 | 0.00 | 0.00 | 0.00 | 96 | 1009.3 |
| 20260504043812 | 46 | 152 | 0.0 | 0.0 | 0.00 | 0.00 | 0.00 | 96 | 1009.2 |
| 20260504043309 | 46 | 152 | 0.0 | 0.0 | 0.00 | 0.00 | 0.00 | 96 | 1009.3 |
| 20260504042807 | 46 | 152 | 0.0 | 0.0 | 0.00 | 0.00 | 0.00 | 95 | 1009.3 |
| 20260504042304 | 46 | 147 | 1.0 | 1.0 | 0.00 | 0.00 | 0.00 | 95 | 1009.3 |
| 20260504041759 | 46 | 149 | 0.0 | 0.0 | 0.00 | 0.00 | 0.00 | 95 | 1009.4 |
| 20260504041255 | 46 | 163 | 0.0 | 0.0 | 0.00 | 0.00 | 0.00 | 95 | 1009.7 |
| 20260504040752 | 46 | 155 | 1.0 | 1.0 | 0.00 | 0.00 | 0.00 | 95 | 1009.4 |
| 20260504040249 | 46 | 143 | 0.0 | 0.0 | 0.00 | 0.00 | 0.00 | 95 | 1009.7 |
| 20260504035745 | 46 | 137 | 0.0 | 0.0 | 0.00 | 0.03 | 0.03 | 94 | 1009.7 |
| 20260504035242 | 46 | 137 | 0.0 | 0.0 | 0.00 | 0.03 | 0.03 | 94 | 1009.6 |
| 20260504034740 | 46 | 137 | 0.0 | 0.0 | 0.00 | 0.03 | 0.03 | 94 | 1009.6 |
| 20260504034237 | 46 | 137 | 0.0 | 0.0 | 0.00 | 0.03 | 0.03 | 94 | 1009.7 |
| 20260504033734 | 46 | 136 | 0.0 | 1.0 | 0.00 | 0.03 | 0.03 | 93 | 1009.8 |
| 20260504033232 | 46 | 137 | 0.0 | 0.0 | 0.00 | 0.03 | 0.03 | 93 | 1009.6 |
| 20260504032728 | 46 | 151 | 0.0 | 1.0 | 0.00 | 0.03 | 0.03 | 93 | 1009.1 |
| 20260504032226 | 47 | 135 | 1.0 | 2.0 | 0.00 | 0.03 | 0.03 | 91 | 1009.4 |
| 20260504031722 | 47 | 154 | 0.0 | 0.0 | 0.00 | 0.03 | 0.03 | 90 | 1009.8 |
| 20260504031220 | 47 | 152 | 0.0 | 0.0 | 0.00 | 0.03 | 0.03 | 90 | 1010.1 |
| 20260504030715 | 47 | 171 | 0.0 | 1.0 | 0.00 | 0.03 | 0.03 | 89 | 1010.1 |
| 20260504030213 | 47 | 176 | 1.0 | 1.0 | 0.00 | 0.03 | 0.03 | 88 | 1010.3 |
| 20260504025709 | 47 | 164 | 0.0 | 0.0 | 0.05 | 0.03 | 0.03 | 87 | 1010.0 |
| 20260504025206 | 47 | 176 | 1.0 | 1.0 | 0.05 | 0.03 | 0.03 | 86 | 1009.9 |
| 20260504024703 | 48 | 171 | 0.0 | 0.0 | 0.00 | 0.02 | 0.02 | 84 | 1010.2 |
| 20260504024200 | 47 | 178 | 2.0 | 3.0 | 0.00 | 0.02 | 0.02 | 83 | 1010.2 |
| 20260504023656 | 48 | 201 | 1.0 | 1.0 | 0.07 | 0.02 | 0.02 | 82 | 1010.4 |
| 20260504023152 | 47 | 126 | 1.0 | 1.0 | 0.07 | 0.02 | 0.02 | 80 | 1010.5 |
| 20260504022649 | 47 | 184 | 0.0 | 1.0 | 0.00 | 0.01 | 0.01 | 81 | 1010.6 |
| 20260504022144 | 48 | 183 | 0.0 | 1.0 | 0.00 | 0.01 | 0.01 | 79 | 1010.4 |
| 20260504021643 | 48 | 166 | 0.0 | 0.0 | 0.07 | 0.01 | 0.01 | 77 | 1010.4 |
| 20260504021139 | 48 | 172 | 1.0 | 1.0 | 0.07 | 0.01 | 0.01 | 75 | 1010.4 |
| 20260504020636 | 48 | 147 | 0.0 | 0.0 | 0.00 | 0.00 | 0.00 | 74 | 1010.1 |
| 20260504020132 | 49 | 155 | 0.0 | 1.0 | 0.00 | 0.00 | 0.00 | 72 | 1010.0 |
| 20260504015629 | 49 | 69 | 4.0 | 7.0 | 0.00 | 0.00 | 0.00 | 69 | 1010.2 |
| 20260504015125 | 49 | 190 | 1.0 | 1.0 | 0.00 | 0.00 | 0.00 | 68 | 1010.1 |
| 20260504014621 | 49 | 8 | 5.0 | 10.0 | 0.00 | 0.00 | 0.00 | 71 | 1010.2 |
| 20260504014119 | 50 | 140 | 0.0 | 0.0 | 0.00 | 0.00 | 0.00 | 67 | 1010.1 |
| 20260504013616 | 50 | 251 | 0.0 | 1.0 | 0.00 | 0.00 | 0.00 | 64 | 1010.1 |
| 20260504013113 | 50 | 154 | 0.0 | 0.0 | 0.00 | 0.00 | 0.00 | 63 | 1009.9 |
| 20260504012610 | 50 | 167 | 0.0 | 0.0 | 0.00 | 0.00 | 0.00 | 61 | 1009.9 |
| 20260504012108 | 51 | 45 | 3.0 | 3.0 | 0.00 | 0.00 | 0.00 | 60 | 1009.8 |
| 20260504011605 | 51 | 124 | 1.0 | 1.0 | 0.00 | 0.00 | 0.00 | 61 | 1009.7 |
| 20260504011101 | 50 | 167 | 0.0 | 1.0 | 0.00 | 0.00 | 0.00 | 63 | 1009.8 |
| 20260504010556 | 51 | 134 | 1.0 | 1.0 | 0.00 | 0.00 | 0.00 | 62 | 1010.0 |
| 20260504010053 | 50 | 207 | 1.0 | 1.0 | 0.00 | 0.00 | 0.00 | 60 | 1010.1 |
| 20260504005549 | 51 | 164 | 0.0 | 0.0 | 0.00 | 0.00 | 0.00 | 59 | 1009.9 |
| 20260504005047 | 50 | 160 | 0.0 | 0.0 | 0.00 | 0.00 | 0.00 | 59 | 1009.8 |
| 20260504004545 | 50 | 166 | 0.0 | 1.0 | 0.00 | 0.00 | 0.00 | 60 | 1009.7 |
| 20260504004042 | 51 | 153 | 0.0 | 0.0 | 0.00 | 0.00 | 0.00 | 59 | 1009.8 |
| 20260504003537 | 51 | 179 | 1.0 | 2.0 | 0.00 | 0.00 | 0.00 | 59 | 1009.7 |
| 20260504003034 | 51 | 198 | 1.0 | 1.0 | 0.00 | 0.00 | 0.00 | 58 | 1009.7 |
| 20260504002531 | 51 | 228 | 1.0 | 1.0 | 0.00 | 0.00 | 0.00 | 57 | 1009.7 |
| 20260504002029 | 52 | 238 | 3.0 | 4.0 | 0.00 | 0.00 | 0.00 | 54 | 1009.8 |
| 20260504001527 | 52 | 269 | 1.0 | 1.0 | 0.00 | 0.00 | 0.00 | 52 | 1010.0 |
| 20260504001022 | 52 | 32 | 2.0 | 2.0 | 0.00 | 0.00 | 0.00 | 51 | 1009.9 |
| 20260504000520 | 52 | 208 | 1.0 | 1.0 | 0.00 | 0.00 | 0.00 | 51 | 1009.7 |
| 20260504000017 | 52 | 176 | 1.0 | 2.0 | 0.00 | 0.00 | 0.00 | 51 | 1009.5 |
| 20260503235515 | 52 | 167 | 0.0 | 1.0 | 0.00 | 0.00 | 0.00 | 52 | 1009.7 |
| 20260503235012 | 52 | 217 | 1.0 | 2.0 | 0.00 | 0.00 | 0.00 | 51 | 1009.4 |
| 20260503234509 | 52 | 152 | 0.0 | 1.0 | 0.00 | 0.00 | 0.00 | 50 | 1009.2 |
| 20260503234008 | 52 | 180 | 2.0 | 2.0 | 0.00 | 0.00 | 0.00 | 50 | 1009.3 |
| 20260503233504 | 52 | 130 | 1.0 | 1.0 | 0.00 | 0.00 | 0.00 | 48 | 1009.2 |
| 20260503233000 | 52 | 213 | 1.0 | 1.0 | 0.00 | 0.00 | 0.00 | 49 | 1009.3 |
| 20260503232457 | 53 | 127 | 2.0 | 2.0 | 0.00 | 0.00 | 0.00 | 48 | 1009.3 |
| 20260503231954 | 53 | 219 | 2.0 | 2.0 | 0.00 | 0.00 | 0.00 | 48 | 1009.3 |
| 20260503231452 | 53 | 40 | 2.0 | 2.0 | 0.00 | 0.00 | 0.00 | 48 | 1009.1 |
| 20260503230948 | 53 | 224 | 2.0 | 2.0 | 0.00 | 0.00 | 0.00 | 46 | 1009.2 |
| 20260503230445 | 53 | 147 | 1.0 | 1.0 | 0.00 | 0.00 | 0.00 | 46 | 1009.1 |
| 20260503225943 | 53 | 230 | 2.0 | 3.0 | 0.00 | 0.00 | 0.00 | 45 | 1009.5 |
| 20260503225439 | 53 | 200 | 1.0 | 1.0 | 0.00 | 0.00 | 0.00 | 45 | 1009.3 |
| 20260503224935 | 54 | 186 | 1.0 | 1.0 | 0.00 | 0.00 | 0.00 | 45 | 1009.3 |
| 20260503224432 | 53 | 121 | 1.0 | 2.0 | 0.00 | 0.00 | 0.00 | 44 | 1009.3 |
| 20260503223930 | 53 | 233 | 2.0 | 2.0 | 0.00 | 0.00 | 0.00 | 44 | 1009.3 |
| 20260503223428 | 53 | 192 | 2.0 | 2.0 | 0.00 | 0.00 | 0.00 | 44 | 1009.4 |
| 20260503222928 | 53 | 119 | 1.0 | 2.0 | 0.00 | 0.00 | 0.00 | 43 | 1009.4 |
| 20260503222427 | 53 | 186 | 2.0 | 3.0 | 0.00 | 0.00 | 0.00 | 42 | 1009.2 |
| 20260503221925 | 53 | 187 | 3.0 | 3.0 | 0.00 | 0.00 | 0.00 | 42 | 1009.1 |
| 20260503221423 | 54 | 247 | 1.0 | 2.0 | 0.00 | 0.00 | 0.00 | 42 | 1009.1 |
| 20260503220919 | 55 | 29 | 3.0 | 3.0 | 0.00 | 0.00 | 0.00 | 42 | 1009.1 |
| 20260503220415 | 55 | 221 | 2.0 | 2.0 | 0.00 | 0.00 | 0.00 | 40 | 1009.2 |
| 20260503215913 | 55 | 174 | 1.0 | 2.0 | 0.00 | 0.00 | 0.00 | 41 | 1009.2 |
| 20260503215409 | 55 | 136 | 0.0 | 1.0 | 0.00 | 0.00 | 0.00 | 39 | 1009.0 |
| 20260503214907 | 56 | 273 | 6.0 | 8.0 | 0.00 | 0.00 | 0.00 | 38 | 1009.1 |
| 20260503214404 | 57 | 63 | 4.0 | 6.0 | 0.00 | 0.00 | 0.00 | 37 | 1009.1 |
| 20260503213901 | 57 | 327 | 3.0 | 3.0 | 0.00 | 0.00 | 0.00 | 38 | 1008.8 |
| 20260503213359 | 55 | 10 | 4.0 | 4.0 | 0.00 | 0.00 | 0.00 | 38 | 1009.1 |
| 20260503212856 | 55 | 246 | 4.0 | 4.0 | 0.00 | 0.00 | 0.00 | 38 | 1009.1 |
| 20260503212354 | 54 | 237 | 3.0 | 3.0 | 0.00 | 0.00 | 0.00 | 39 | 1009.2 |
| 20260503211850 | 54 | 249 | 2.0 | 2.0 | 0.00 | 0.00 | 0.00 | 39 | 1009.1 |
| 20260503211347 | 54 | 241 | 4.0 | 7.0 | 0.00 | 0.00 | 0.00 | 39 | 1009.1 |
| 20260503210842 | 54 | 236 | 6.0 | 8.0 | 0.00 | 0.00 | 0.00 | 37 | 1009.0 |
| 20260503210340 | 54 | 314 | 5.0 | 8.0 | 0.00 | 0.00 | 0.00 | 37 | 1009.0 |
| 20260503205835 | 54 | 211 | 2.0 | 3.0 | 0.00 | 0.00 | 0.00 | 37 | 1009.1 |
| 20260503205332 | 54 | 251 | 6.0 | 8.0 | 0.00 | 0.00 | 0.00 | 36 | 1008.9 |
| 20260503204828 | 54 | 225 | 4.0 | 7.0 | 0.00 | 0.00 | 0.00 | 36 | 1008.9 |
| 20260503204326 | 54 | 163 | 3.0 | 4.0 | 0.00 | 0.00 | 0.00 | 35 | 1008.9 |
| 20260503203823 | 54 | 236 | 4.0 | 4.0 | 0.00 | 0.00 | 0.00 | 37 | 1009.0 |
| 20260503203320 | 54 | 224 | 7.0 | 9.0 | 0.00 | 0.00 | 0.00 | 34 | 1009.1 |
| 20260503202817 | 54 | 260 | 5.0 | 7.0 | 0.00 | 0.00 | 0.00 | 36 | 1009.2 |
| 20260503202315 | 55 | 339 | 5.0 | 8.0 | 0.00 | 0.00 | 0.00 | 34 | 1009.2 |
| 20260503201813 | 56 | 234 | 5.0 | 7.0 | 0.00 | 0.00 | 0.00 | 34 | 1009.0 |
| 20260503201310 | 56 | 225 | 8.0 | 13.0 | 0.00 | 0.00 | 0.00 | 33 | 1009.3 |
| 20260503200808 | 56 | 233 | 5.0 | 7.0 | 0.00 | 0.00 | 0.00 | 32 | 1009.1 |
| 20260503200303 | 55 | 229 | 4.0 | 4.0 | 0.00 | 0.00 | 0.00 | 34 | 1009.2 |
| 20260503195800 | 56 | 233 | 3.0 | 6.0 | 0.00 | 0.00 | 0.00 | 35 | 1009.3 |
| 20260503195257 | 56 | 245 | 5.0 | 8.0 | 0.00 | 0.00 | 0.00 | 32 | 1009.2 |
| 20260503194754 | 56 | 30 | 6.0 | 9.0 | 0.00 | 0.00 | 0.00 | 31 | 1009.3 |
| 20260503194250 | 55 | 16 | 3.0 | 3.0 | 0.00 | 0.00 | 0.00 | 34 | 1009.3 |
| 20260503193746 | 55 | 187 | 2.0 | 2.0 | 0.00 | 0.00 | 0.00 | 36 | 1009.4 |
| 20260503193243 | 56 | 335 | 8.0 | 10.0 | 0.00 | 0.00 | 0.00 | 34 | 1009.5 |
| 20260503192738 | 55 | 222 | 5.0 | 7.0 | 0.00 | 0.00 | 0.00 | 34 | 1009.5 |
| 20260503192233 | 55 | 318 | 4.0 | 4.0 | 0.00 | 0.00 | 0.00 | 39 | 1009.7 |
| 20260503191731 | 55 | 53 | 3.0 | 4.0 | 0.00 | 0.00 | 0.00 | 34 | 1009.8 |
| 20260503191228 | 54 | 199 | 3.0 | 6.0 | 0.00 | 0.00 | 0.00 | 33 | 1009.7 |
| 20260503190725 | 54 | 237 | 7.0 | 8.0 | 0.00 | 0.00 | 0.00 | 34 | 1009.9 |
| 20260503190221 | 54 | 186 | 6.0 | 8.0 | 0.00 | 0.00 | 0.00 | 37 | 1010.0 |
| 20260503185719 | 53 | 198 | 2.0 | 2.0 | 0.00 | 0.00 | 0.00 | 33 | 1010.1 |
| 20260503185214 | 53 | 243 | 8.0 | 10.0 | 0.00 | 0.00 | 0.00 | 33 | 1010.2 |
| 20260503184709 | 53 | 231 | 2.0 | 3.0 | 0.00 | 0.00 | 0.00 | 35 | 1010.1 |
| 20260503184206 | 53 | 244 | 6.0 | 8.0 | 0.00 | 0.00 | 0.00 | 36 | 1010.3 |
| 20260503183702 | 53 | 206 | 8.0 | 13.0 | 0.00 | 0.00 | 0.00 | 36 | 1010.3 |
| 20260503183159 | 53 | 242 | 5.0 | 6.0 | 0.00 | 0.00 | 0.00 | 33 | 1010.6 |
| 20260503182657 | 52 | 7 | 9.0 | 11.0 | 0.00 | 0.00 | 0.00 | 35 | 1010.6 |
| 20260503182155 | 53 | 325 | 6.0 | 10.0 | 0.00 | 0.00 | 0.00 | 36 | 1010.6 |
| 20260503181652 | 53 | 114 | 4.0 | 4.0 | 0.00 | 0.00 | 0.00 | 36 | 1010.6 |
| 20260503181149 | 52 | 235 | 4.0 | 8.0 | 0.00 | 0.00 | 0.00 | 35 | 1010.6 |
| 20260503180646 | 52 | 224 | 6.0 | 6.0 | 0.00 | 0.00 | 0.00 | 35 | 1010.7 |
| 20260503180144 | 52 | 199 | 4.0 | 4.0 | 0.00 | 0.00 | 0.00 | 39 | 1010.7 |
| 20260503175640 | 53 | 221 | 6.0 | 7.0 | 0.00 | 0.00 | 0.00 | 39 | 1010.9 |
| 20260503175138 | 53 | 131 | 3.0 | 4.0 | 0.00 | 0.00 | 0.00 | 37 | 1010.9 |
| 20260503174634 | 53 | 203 | 2.0 | 4.0 | 0.00 | 0.00 | 0.00 | 35 | 1010.7 |
| 20260503174131 | 52 | 225 | 4.0 | 7.0 | 0.00 | 0.00 | 0.00 | 40 | 1011.0 |
| 20260503173626 | 50 | 173 | 4.0 | 8.0 | 0.00 | 0.00 | 0.00 | 39 | 1010.9 |
| 20260503173123 | 51 | 253 | 12.0 | 14.0 | 0.00 | 0.00 | 0.00 | 37 | 1010.8 |
| 20260503172620 | 50 | 258 | 3.0 | 6.0 | 0.00 | 0.00 | 0.00 | 40 | 1011.1 |
| 20260503172117 | 51 | 212 | 3.0 | 3.0 | 0.00 | 0.00 | 0.00 | 39 | 1011.0 |
| 20260503171614 | 52 | 350 | 4.0 | 4.0 | 0.00 | 0.00 | 0.00 | 38 | 1011.2 |
| 20260503171111 | 50 | 294 | 4.0 | 6.0 | 0.00 | 0.00 | 0.00 | 41 | 1010.8 |
| 20260503170608 | 51 | 250 | 9.0 | 13.0 | 0.00 | 0.00 | 0.00 | 41 | 1011.3 |
| 20260503170104 | 52 | 280 | 3.0 | 6.0 | 0.00 | 0.00 | 0.00 | 39 | 1011.2 |
| 20260503150954 | 48 | 72 | 2.0 | 2.0 | 0.00 | 0.00 | 0.00 | 44 | 1011.9 |
| 20260503150450 | 48 | 318 | 9.0 | 10.0 | 0.00 | 0.00 | 0.00 | 42 | 1011.9 |
| 20260503131343 | 44 | 159 | 3.0 | 4.0 | 0.00 | 0.00 | 0.00 | 53 | 1012.5 |
| 20260503130841 | 44 | 237 | 3.0 | 3.0 | 0.00 | 0.00 | 0.00 | 54 | 1012.7 |
| 20260503130338 | 44 | 245 | 2.0 | 3.0 | 0.00 | 0.00 | 0.00 | 54 | 1012.7 |
| 20260503110726 | 38 | 202 | 2.0 | 2.0 | 0.00 | 0.00 | 0.00 | 79 | 1012.2 |
| 20260503110223 | 38 | 208 | 1.0 | 2.0 | 0.00 | 0.00 | 0.00 | 80 | 1012.1 |
| 20260503100149 | 37 | 169 | 0.0 | 0.0 | 0.00 | 0.00 | 0.00 | 89 | 1011.5 |
| 20260503090108 | 36 | 170 | 0.0 | 0.0 | 0.00 | 0.00 | 0.00 | 91 | 1011.9 |